Location: Basse Occidentale du Courleau
(48.3833°N, 4.8333°W)
Time: 09:48:06
(UTC+00:00)

Terra - Pass Details

Date: 05 July 2020
Orbit: 701 x 703 km, 98.2° (Epoch: 08 August)

Event Time Altitude Azimuth Distance (km) Brightness Sun altitude
Exits shadow 23:49:22 - 237° (WSW) 2,447 4.4 -18.5°
Reaches altitude 10° 23:50:54 10° 253° (WSW) 2,173 4.3 -18.6°
Maximum altitude 23:52:34 12° 274° (W) 2,062 4.4 -18.6°
Drops below altitude 10° 23:54:14 10° 294° (WNW) 2,179 4.8 -18.6°
Sets 23:58:09 0° 327° (NNW) 3,104 6.3 -18.7°
